www.pogodaiklimat.ru

Погода и климат >> Архив погоды >> Беларусь >> Столбцы


ПОГОДА в Столбцах

  • Прогноз погоды в Столбцах
  • Монитор погоды в Столбцах
  • Климат города

АРХИВ ПОГОДЫ в Столбцах

Время (UTC), дата Ветер
(напр.,м/с)
 
Видим.   Явления Облачность Т
(С)
Тd
(С)
f
(%)
Тe
(С)
Тes
(С)
Комфортность P
(гПа)
Po
(гПа)
Тmin
(С)
Tmax
(С)
R
(мм)
R24
(мм)
S
(см)
09 14.11 З 3 4100 м 10 баллов +1.2 +0.8 97 -3 -3 1017.0 993.2
12 14.11 З 3 4700 м дымка 10 баллов +2.2 +1.0 92 -2 -2 1019.0 995.2
15 14.11 штиль 0 4500 м дымка 10 баллов +2.0 +1.0 93 +1 +1 1020.0 996.2
18 14.11 ЮЗ 1 4200 м дымка 10 баллов +2.0 +1.3 95 0 0 1021.0 997.2 +2.2
21 14.11 ЮЗ 2 н/о н/о +1.9 +0.9 93 -2 -2 1022.0 998.2
00 15.11 Ю 1 н/о н/о +0.6 -0.3 94 -1 -1 1022.0 998.0
03 15.11 Ю 2 н/о н/о +1.0 -0.3 91 -3 -3 1021.0 997.1 +0.3
06 15.11 ЮЗ 3 7000 м дымка 10 баллов +1.2 -0.1 91 -3 -3 1021.0 997.1 +0.3
09 15.11 ЮЗ 3 5000 м дымка 10 баллов +2.3 +1.6 95 -2 -2 1022.0 998.2
12 15.11 ЮЗ 3 4600 м морось 10 баллов +3.7 +3.1 96 -0 -0 1022.0 998.3
15 15.11 ЮЗ 3 4300 м морось 10 баллов +4.2 +3.6 96 0 0 1022.0 998.4
18 15.11 ЮЗ 3 4800 м дымка 10 баллов +4.0 +3.3 95 0 0 1022.0 998.3 +4.4
21 15.11 ЮЗ 3 н/о н/о +4.6 +3.6 93 +1 +1 1023.0 999.4
00 16.11 ЮЗ 3 н/о н/о +4.9 +3.7 92 +1 +1 1023.0 999.4
03 16.11 З 2 н/о н/о +4.9 +3.7 92 +2 +2 1024.0 1000.4 +4.0
06 16.11 З 1 4100 м ливневой дождь 10 баллов +4.5 +3.9 96 +3 +3 1025.0 1001.3 +4.0
09 16.11 З 2 5000 м дымка 10 баллов +5.4 +4.2 92 +3 +3 1026.0 1002.4
12 16.11 З 2 7000 м дымка 10 баллов +6.1 +3.8 85 +4 +4 1026.0 1002.4
15 16.11 штиль 0 4500 м дымка 10 баллов +4.8 +2.7 86 +4 +4 1026.0 1002.3
18 16.11 штиль 0 4100 м дымка 10 баллов +2.8 +2.4 97 +2 +2 1027.0 1003.1 +6.3
21 16.11 штиль 0 н/о н/о +2.9 +2.6 98 +2 +2 1026.0 1002.2
00 17.11 штиль 0 н/о н/о +3.0 +2.7 98 +2 +2 1026.0 1002.2
03 17.11 ЮВ 1 н/о н/о +1.4 +1.4 100 -1 -1 1025.0 1001.0 +1.4
06 17.11 Ю 1 1400 м дымка 10 баллов +2.4 +2.1 98 +1 +1 1023.0 999.2 +1.4
09 17.11 Ю 2 4600 м дымка 10 баллов +2.6 +1.1 90 -1 -1 1023.0 999.2
12 17.11 ЮЗ 2 4000 м дымка 10 баллов +3.7 +0.9 82 +1 +1 1021.0 997.3
15 17.11 Ю 1 5000 м дымка 10 баллов +2.7 +0.6 86 +1 +1 1021.0 997.2
18 17.11 ЮЗ 1 4800 м дымка 10 баллов +2.5 +0.7 88 +1 +1 1021.0 997.2 +3.8
21 17.11 ЮЗ 1 н/о н/о +2.6 +1.4 92 +1 +1 1021.0 997.2
00 18.11 штиль 0 н/о н/о +1.8 +1.4 97 +1 +1 1020.0 996.2
03 18.11 штиль 0 н/о н/о +1.1 +1.0 99 -0 -0 1019.0 995.2 +0.7
06 18.11 штиль 0 3100 м дымка 10 баллов +0.5 +0.2 98 -1 -1 1019.0 995.1 -0.1
09 18.11 ЮВ 1 4100 м дымка 10 баллов +1.9 +1.5 97 -0 -0 1018.0 994.2
12 18.11 ЮЗ 2 8000 м дымка 10 баллов +3.3 +0.9 84 0 0 1016.0 992.4
15 18.11 штиль 0 5000 м дымка 10 баллов +2.2 +0.6 89 +1 +1 1015.0 991.3
18 18.11 штиль 0 4100 м дымка 10 баллов +0.4 -0.2 96 -1 -1 1013.0 989.2 +3.7
21 18.11 ЮЗ 2 н/о н/о +0.3 -1.1 90 -3 -3 1012.0 988.2
00 19.11 ЮВ 1 н/о н/о -0.5 -1.1 96 -3 -3 1010.0 986.2
03 19.11 Ю 1 н/о н/о -0.1 -0.5 97 -2 -2 1007.0 983.3 -0.6
06 19.11 ЮВ 3 4300 м дымка 10 баллов +0.4 -0.0 97 -4 -4 1005.0 981.4 -0.6
09 19.11 Ю 3 4100 м дождь 10 баллов +1.3 +0.9 97 -3 -3 1005.0 981.5
12 19.11 ЮЗ 3 5000 м дождь 10 баллов +2.2 +0.9 91 -2 -2 1005.0 981.6
15 19.11 ЮЗ 3 4700 м дымка 10 баллов +2.1 +1.2 94 -2 -2 1005.0 981.6
18 19.11 ЮЗ 2 5000 м дымка 10 баллов +2.3 +1.1 92 -1 -1 1005.0 981.6 +2.3 1
21 19.11 ЮЗ 3 н/о н/о +2.4 +0.9 90 -2 -2 1006.0 982.6
00 20.11 Ю 1 н/о н/о +2.2 +0.6 89 0 0 1005.0 981.6
03 20.11 Ю 2 н/о н/о +2.0 -0.3 85 -1 -1 1005.0 981.6 +2.0
06 20.11 ЮВ 2 5000 м дымка 10 баллов +0.9 -0.4 91 -3 -3 1006.0 982.4 +0.9
09 20.11 Ю 2 6000 м дымка 10 баллов +1.4 +0.2 92 -2 -2 1007.0 983.5
12 20.11 штиль 0 5000 м дымка 10 баллов +1.8 +0.3 90 +1 +1 1007.0 983.5
15 20.11 штиль 0 3300 м 10 баллов +0.6 +0.3 98 -1 -1 1007.0 983.4
18 20.11 ЮЗ 1 3100 м дымка 10 баллов +0.4 +0.1 98 -2 -2 1007.0 983.4 +1.9 1
21 20.11 ЮЗ 1 н/о н/о -0.2 -0.2 100 -3 -3 1008.0 984.3
00 21.11 штиль 0 н/о н/о +0.5 +0.5 100 -1 -1 1008.0 984.4
03 21.11 штиль 0 н/о н/о +0.1 -0.0 99 -1 -1 1009.0 985.3 -0.2

 

Местоположение метеостанции Столбцы (Минская область, Беларусь): широта 53.48 долгота 26.73 высота над уровнем моря 190 м.

В архиве по умолчанию представлена погода в Столбцах за последнюю неделю. Архивные данные за месяц целиком и за предыдущие месяцы, начиная с января 2011 года, Вы можете получить, выбрав интересующий диапазон дат из раскрывающегося списка и нажав кнопку "Ввод!".

Внимание! Время в таблицах - всемирное. Для получения местного времени необходимо прибавить поправку, которая в Столбцах равна 3 ч.

Смотрите также архив погоды в соседних городах и на ближайших метеорологических станциях:

Погода в Новогрудке (Гродненская область, Беларусь) (60 км)
Погода в Барановичах (Брестская область, Беларусь) (64 км)
Погода в Воложине (Минская область, Беларусь) (69 км)
Погода в Слуцке (Минская область, Беларусь) (74 км)
Погода в Минске (город Минск, Беларусь) (78 км)
Погода в Ганцевичах (Брестская область, Беларусь) (83 км)
Погода в Марьиной Горке (Минская область, Беларусь) (93 км)
Погода в Лиде (Гродненская область, Беларусь) (104 км)
Погода в Вилейке (Минская область, Беларусь) (116 км)
Погода в Ошмянах (Гродненская область, Беларусь) (118 км)

Пояснения к столбцам:

Ветер - указаны скорость ветра в м/с - средняя за 10 мин, порывы в срок и между сроками (в фигурных скобках) и направление, откуда дует ветер: С - северный, СВ - северо-восточный, В - восточный, ЮВ - юго-восточный, Ю - южный, ЮЗ - юго-западный, З - западный, СЗ - северо-западный.
Видимость - горизонтальная дальность видимости в метрах или километрах. При видимости от 1 до 10 км при отсутствии осадков обычно наблюдается дымка, при ухудшении видимости до 1 км и менее - туман. В сухую погоду видимость может ухудшаться дымом, пылью или мглою.
Явления - указаны атмосферные явления, наблюдавшиеся в срок или в последний час перед сроком; фигурными скобками обозначены явления, наблюдавшиеся между сроками (за 1-3 часа до срока); квадратными скобками обозначены град или гололедные отложения с указанием их диаметра в мм.
Облачность - указаны через наклонную черту общая и нижняя облачность в баллах и высота нижней границы облаков в метрах; квадратными скобками обозначены формы облаков: Ci - перистые, Cs - перисто-слоистые, Cc - перисто-кучевые, Ac - высококучевые, As - высокослоистые, Sc - слоисто-кучевые, Ns - слоисто-дождевые, Cu - кучевые, Cb - кучево-дождевые. Подробнее классификацию облаков см. в Атласе облаков (PDF).
T - Температура воздуха - температура, измеренная на высоте 2 м над землей.
Td - Температура точки росы - температура, при понижении до которой содержащийся в воздухе водяной пар достигнет насыщения.
f - Относительная влажность воздуха - влажноcть воздуха, измеренная на высоте 2 м над землей.
Te - Эффективная температура - температура, которую ощущает одетый по сезону человек в тени. Характеристика душности погоды. При расчете учитывается влияние влажности воздуха и скорости ветра на теплоощущения человека.
Tes - Эффективная температура на солнце - температура, которую ощущает человек, с поправкой на солнечный нагрев. Характеристика знойности погоды. Зависит от высоты солнца над горизонтом, облачности и скорости ветра. Ночью, в пасмурную погоду, а также при ветре 12 м/с и более поправка равна нулю.
P - Атмосферное давление - приведенное к уровню моря атмосферное давление.
Po - Атмосферное давление - измеренное на уровне метеостанции атмосферное давление.
Tmin - Минимальная температура - минимум температуры воздуха на высоте 2 м над землей.
Tmax - Максимальная температура - максимум температуры воздуха на высоте 2 м над землей.
R - Количество осадков - Количество выпавших осадков за период времени, мм. При наведении курсора мыши на число - период времени, за который выпало указанное количество осадков.
R24 - Количество осадков - Количество выпавших осадков за 24 часа, мм.
S - Снежный покров - Высота снежного покрова, см. При наведении курсора мыши на число - состояние снежного покрова и степень покрытия местности в баллах.